星链-2497 (STARLINK-2497 )

导读 | 豆包AI

STARLINK-2497是美国SpaceX公司星链(Starlink)卫星互联网星座中的一颗卫星,于2021年5月9日发射升空。星链项目旨在通过部署数千颗低地球轨道卫星,为全球尤其是缺乏传统基础设施的偏远地区提供高速低延迟宽带互联网服务,目前该星座已成为全球规模最大的卫星互联网星座,持续推动全球互联网覆盖能力升级。

基本信息
目录编号:
48455
目录名称:
STARLINK-2497
国际标识:
2021-040AD
轨道中心:
EARTH
卫星名称:
星链-2497
卫星全名:
星链-2497 (STARLINK-2497 )
卫星状态:
在轨 (已飞行1817 天)
发射日期:
2021-05-09 UTC
国别 :
美国 (US)
星等 :
--
轨道信息
数据来源 国际轨道数据
星历时间: 2026-04-30T09:55:12+0800
11小时前
查看轨道信息
半长轴: 6853.356km
偏心率: 0.0001272
轨道倾角: 53.160°
近地点辐角 87.638°
升交点赤经 299.423°
平近点角 272.476°
近地点: 474.347km
远地点: 476.091km
周期: 94.105分钟
每日圈数: 15.30199
详细信息
固有亮度:
5
最大亮度:
2.5
卫星平台:
Starlink V1.0
覆盖范围:
全球
运营商:
太空探索技术公司
运营商所在国:
美国
制造商(研发单位):
太空探索技术公司
制造商所在国:
美国
使用方式:
暂无
卫星简介
星链(Starlink)计划是由太空探索技术公司(SpaceX)提出的一个巨型低轨卫星互联网星座项目,计划在2019年至2024年间在太空搭建由约1.2万颗卫星组成的“星链”网络,其中1584颗将部署在地球上空550千米处的近地轨道,并从2020年开始工作。该卫星仍在工作。
2D轨道图
3D轨道图
轨道高度分析图
轨道倾角分析图
轨道综合分析图
查看轨道综合分析图